When you browse on this site, cookies collect data to enhance your experience and personalize the content and advertising you see.
Visit our Privacy Policy to learn more. By continuing to use the site, you agree to this use of cookies and data.
  • en France
  • Liste des pays
  • À 7 jours
  • Température de l'eau
  • Carte météo
  • Widgets météo
  • user-avatar
    Se connecter

    Météo par heure à Annaba

    Ce jour, 9 Avril, Jeudi

    Heure Température Précipitation Vent Pression Humidité
    00:00 +12°C° 0 mm 2 m/s 765 mmHg 84%
    01:00 +12°C° 0 mm 1 m/s 765 mmHg 85%
    02:00 +12°C° 0 mm 1 m/s 764 mmHg 85%
    03:00 +12°C° 0 mm 1 m/s 764 mmHg 85%
    04:00 +12°C° 0 mm 1 m/s 763 mmHg 85%
    05:00 +12°C° 0 mm 1 m/s 764 mmHg 84%
    06:00 +13°C° 0 mm 1 m/s 764 mmHg 83%
    07:00 +14°C° 0 mm 1 m/s 764 mmHg 81%
    08:00 +15°C° 0 mm 2 m/s 764 mmHg 75%
    09:00 +17°C° 0 mm 2 m/s 764 mmHg 69%
    10:00 +19°C° 0 mm 2 m/s 764 mmHg 63%
    11:00 +19°C° 0 mm 2 m/s 764 mmHg 61%
    12:00 +20°C° 0 mm 3 m/s 763 mmHg 60%
    13:00 +21°C° 0 mm 4 m/s 763 mmHg 59%
    14:00 +20°C° 0 mm 4 m/s 763 mmHg 59%
    15:00 +20°C° 0 mm 5 m/s 762 mmHg 60%
    16:00 +20°C° 0 mm 5 m/s 762 mmHg 61%
    17:00 +17°C° 0 mm 5 m/s 762 mmHg 66%
    18:00 +17°C° 0 mm 4 m/s 762 mmHg 71%
    19:00 +14°C° 0 mm 4 m/s 762 mmHg 76%
    20:00 +14°C° 0 mm 3 m/s 763 mmHg 79%
    21:00 +13°C° 0 mm 3 m/s 763 mmHg 81%
    22:00 +13°C° 0 mm 3 m/s 764 mmHg 84%
    23:00 +12°C° 0 mm 3 m/s 764 mmHg 84%

    Demain, 10 Avril, Vendredi

    Heure Température Précipitation Vent Pression Humidité
    00:00 +13°C° 0 mm 2 m/s 764 mmHg 85%
    01:00 +13°C° 0 mm 2 m/s 764 mmHg 86%
    02:00 +13°C° 0 mm 2 m/s 763 mmHg 85%
    03:00 +12°C° 0 mm 1 m/s 763 mmHg 85%
    04:00 +12°C° 0 mm 1 m/s 762 mmHg 85%
    05:00 +13°C° 0 mm 1 m/s 762 mmHg 84%
    06:00 +13°C° 0 mm 1 m/s 763 mmHg 83%
    07:00 +14°C° 0 mm 1 m/s 763 mmHg 82%
    08:00 +16°C° 0 mm 2 m/s 763 mmHg 76%
    09:00 +17°C° 0 mm 2 m/s 763 mmHg 70%
    10:00 +19°C° 0 mm 2 m/s 763 mmHg 64%
    11:00 +20°C° 0.1 mm 3 m/s 763 mmHg 63%
    12:00 +20°C° 0.1 mm 3 m/s 762 mmHg 62%
    13:00 +21°C° 0.1 mm 4 m/s 762 mmHg 62%
    14:00 +21°C° 0.1 mm 4 m/s 762 mmHg 63%
    15:00 +21°C° 0.1 mm 5 m/s 761 mmHg 65%
    16:00 +21°C° 0.1 mm 5 m/s 761 mmHg 67%
    17:00 +19°C° 0.1 mm 5 m/s 761 mmHg 72%
    18:00 +17°C° 0.1 mm 5 m/s 761 mmHg 78%
    19:00 +17°C° 0.1 mm 4 m/s 761 mmHg 84%
    20:00 +15°C° 0 mm 4 m/s 762 mmHg 85%
    21:00 +16°C° 0 mm 3 m/s 763 mmHg 87%
    22:00 +14°C° 0 mm 3 m/s 763 mmHg 88%
    23:00 +14°C° 0 mm 3 m/s 763 mmHg 89%

    Après-demain, 11 Avril, Samedi

    Heure Température Précipitation Vent Pression Humidité
    00:00 +15°C° 0 mm 2 m/s 763 mmHg 89%
    01:00 +14°C° 0 mm 2 m/s 763 mmHg 90%
    02:00 +14°C° 0 mm 2 m/s 763 mmHg 90%
    03:00 +14°C° 0 mm 2 m/s 763 mmHg 91%
    04:00 +13°C° 0 mm 2 m/s 763 mmHg 91%
    05:00 +14°C° 0 mm 2 m/s 763 mmHg 90%
    06:00 +14°C° 0 mm 1 m/s 763 mmHg 90%
    07:00 +14°C° 0 mm 1 m/s 763 mmHg 89%
    08:00 +16°C° 0 mm 1 m/s 763 mmHg 83%
    09:00 +19°C° 0 mm 1 m/s 764 mmHg 77%
    10:00 +20°C° 0 mm 1 m/s 764 mmHg 71%
    11:00 +20°C° 0.1 mm 2 m/s 764 mmHg 70%
    12:00 +20°C° 0.1 mm 2 m/s 764 mmHg 69%
    13:00 +21°C° 0.1 mm 3 m/s 763 mmHg 68%
    14:00 +20°C° 0.2 mm 3 m/s 763 mmHg 69%
    15:00 +20°C° 0.2 mm 4 m/s 763 mmHg 70%
    16:00 +20°C° 0.2 mm 4 m/s 762 mmHg 71%
    17:00 +18°C° 0 mm 4 m/s 762 mmHg 75%
    18:00 +17°C° 0 mm 4 m/s 762 mmHg 79%
    19:00 +15°C° 0 mm 4 m/s 763 mmHg 83%
    20:00 +14°C° 0 mm 3 m/s 763 mmHg 84%
    21:00 +14°C° 0 mm 3 m/s 763 mmHg 86%
    22:00 +13°C° 0 mm 3 m/s 764 mmHg 87%
    23:00 +14°C° 0 mm 2 m/s 763 mmHg 87%

    12 Avril, Dimanche

    Heure Température Précipitation Vent Pression Humidité
    00:00 +14°C° 0 mm 2 m/s 763 mmHg 87%
    01:00 +14°C° 0 mm 2 m/s 763 mmHg 86%
    02:00 +14°C° 0 mm 2 m/s 763 mmHg 86%
    03:00 +14°C° 0 mm 2 m/s 762 mmHg 85%
    04:00 +14°C° 0 mm 2 m/s 762 mmHg 84%
    05:00 +14°C° 0 mm 2 m/s 762 mmHg 83%
    06:00 +15°C° 0 mm 2 m/s 762 mmHg 82%
    07:00 +15°C° 0 mm 2 m/s 762 mmHg 80%
    08:00 +17°C° 0 mm 2 m/s 762 mmHg 74%
    09:00 +19°C° 0 mm 2 m/s 762 mmHg 67%
    10:00 +21°C° 0 mm 2 m/s 762 mmHg 60%
    11:00 +23°C° 0 mm 2 m/s 761 mmHg 58%
    12:00 +24°C° 0 mm 2 m/s 761 mmHg 56%
    13:00 +25°C° 0 mm 3 m/s 760 mmHg 54%
    14:00 +25°C° 0 mm 3 m/s 760 mmHg 54%
    15:00 +25°C° 0 mm 3 m/s 759 mmHg 54%
    16:00 +25°C° 0 mm 3 m/s 759 mmHg 54%
    17:00 +24°C° 0.1 mm 3 m/s 759 mmHg 61%
    18:00 +21°C° 0.1 mm 2 m/s 759 mmHg 69%
    19:00 +19°C° 0.1 mm 2 m/s 758 mmHg 76%
    20:00 +19°C° 0 mm 2 m/s 759 mmHg 76%
    21:00 +18°C° 0 mm 2 m/s 759 mmHg 75%
    22:00 +18°C° 0 mm 2 m/s 759 mmHg 75%
    23:00 +18°C° 0 mm 2 m/s 759 mmHg 73%

    13 Avril, Lundi

    Heure Température Précipitation Vent Pression Humidité
    00:00 +18°C° 0 mm 2 m/s 758 mmHg 71%
    01:00 +17°C° 0 mm 2 m/s 758 mmHg 69%
    02:00 +17°C° 0 mm 3 m/s 758 mmHg 68%
    03:00 +17°C° 0 mm 3 m/s 758 mmHg 67%
    04:00 +17°C° 0 mm 3 m/s 758 mmHg 66%
    05:00 +17°C° 0.1 mm 3 m/s 757 mmHg 71%
    06:00 +17°C° 0.1 mm 3 m/s 757 mmHg 75%
    07:00 +17°C° 0.1 mm 3 m/s 757 mmHg 79%
    08:00 +19°C° 0 mm 2 m/s 757 mmHg 73%
    09:00 +21°C° 0 mm 2 m/s 757 mmHg 67%
    10:00 +24°C° 0 mm 1 m/s 757 mmHg 61%
    11:00 +25°C° 0 mm 1 m/s 757 mmHg 59%
    12:00 +26°C° 0 mm 1 m/s 757 mmHg 57%
    13:00 +26°C° 0 mm 1 m/s 756 mmHg 56%
    14:00 +26°C° 0 mm 2 m/s 756 mmHg 58%
    15:00 +25°C° 0 mm 4 m/s 755 mmHg 61%
    16:00 +23°C° 0 mm 5 m/s 755 mmHg 64%
    17:00 +22°C° 0 mm 5 m/s 755 mmHg 67%
    18:00 +21°C° 0 mm 5 m/s 755 mmHg 70%
    19:00 +19°C° 0 mm 5 m/s 755 mmHg 74%
    20:00 +19°C° 0 mm 4 m/s 754 mmHg 75%
    21:00 +18°C° 0 mm 4 m/s 754 mmHg 76%
    22:00 +18°C° 0 mm 3 m/s 754 mmHg 77%
    23:00 +18°C° 0 mm 3 m/s 754 mmHg 73%

    14 Avril, Mardi

    Heure Température Précipitation Vent Pression Humidité
    00:00 +18°C° 0 mm 2 m/s 753 mmHg 70%
    01:00 +19°C° 0 mm 1 m/s 753 mmHg 66%
    02:00 +18°C° 0 mm 2 m/s 753 mmHg 67%
    03:00 +18°C° 0 mm 3 m/s 752 mmHg 69%
    04:00 +18°C° 0 mm 3 m/s 752 mmHg 70%
    05:00 +18°C° 0 mm 3 m/s 752 mmHg 74%
    06:00 +17°C° 0 mm 3 m/s 752 mmHg 78%
    07:00 +17°C° 0 mm 3 m/s 752 mmHg 82%
    08:00 +19°C° 0 mm 4 m/s 752 mmHg 77%
    09:00 +20°C° 0 mm 4 m/s 752 mmHg 72%
    10:00 +21°C° 0 mm 4 m/s 752 mmHg 67%
    11:00 +22°C° 0 mm 5 m/s 752 mmHg 66%
    12:00 +22°C° 0 mm 6 m/s 752 mmHg 65%
    13:00 +22°C° 0 mm 6 m/s 752 mmHg 64%
    14:00 +22°C° 0 mm 6 m/s 752 mmHg 64%
    15:00 +21°C° 0 mm 6 m/s 752 mmHg 64%
    16:00 +21°C° 0 mm 6 m/s 752 mmHg 64%
    17:00 +19°C° 0 mm 5 m/s 752 mmHg 71%
    18:00 +18°C° 0 mm 4 m/s 753 mmHg 77%
    19:00 +17°C° 0 mm 3 m/s 753 mmHg 83%
    20:00 +16°C° 0 mm 3 m/s 754 mmHg 85%
    21:00 +15°C° 0 mm 2 m/s 754 mmHg 88%
    22:00 +15°C° 0 mm 2 m/s 755 mmHg 90%
    23:00 +15°C° 0 mm 2 m/s 755 mmHg 90%
    Voir plus